Content
SEND FEEDBACK

Daily
Averages
Monthly
Summary
Canada

VANCOUVER - CITY HALL, BRITISH COLUMBIA


Home > North America > Canada > British Columbia
Elevation: 283 feet     Latitude: 49 17N     Longitude: 123 07W

WEATHER
 
SELECT A DAY
Number of Records: 169,677;   Date Range: 4/23/95 - 7/27/14
 
SHARE

PRINT THIS DATA

[ ← Previous Day ]
WEATHER ALMANAC - JULY 21, 2013
[ Next Day → ]
[ °C ]   °F
Weather ElementAverageHighLow
Temperature63.9 °F73 °F (5:00 pm)55.2 °F (6:00 am)
Dewpoint54.9 °F58.1 °F (4:00 pm)52.5 °F (8:00 am)
Humidity72.4 %92 % (6:00 am)47 % (5:00 pm)
Barometer29.96 in29.99 in (8:00 am)29.91 in (7:00 pm)
Wind Speed1.3 mph2.3 mph (10:00 am)
Weather ElementAverage
Wind DirectionESE (121.9 °)

Weather ElementTotal
Precipitation---
Heating Degree Days0.9 (Base 65)
Growing Degree Days14.1 (Base 50)
Averaged from 27 records on July 21, 2013
WEATHER CONDITIONS BREAKOUT
WIND DIRECTION BREAKOUT
WEATHER BY HOUR - JULY 21, 2013
[ °C ]   °F
Local TimeTemperatureDewpointHumidityBarometerVisibilityWind DirectionWind SpeedGust SpeedPrecipitationEventsConditions
1:00 AM59.4 °F54.3 °F83 %29.98 inCalm
2:00 AM58.3 °F54.1 °F86 %29.98 inCalm
3:00 AM57.4 °F54.1 °F89 %29.97 inNorth (10°)1.2 mph
4:00 AM56.3 °F53.4 °F90 %29.97 inCalm
5:00 AM56.0 °F53.0 °F87 %29.97 inCalm
5:00 AM55.8 °F53.2 °F91 %29.97 inCalm
6:00 AM55.2 °F53.1 °F92 %29.98 inNorth (10°)1.2 mph
7:00 AM57.4 °F53.4 °F87 %29.98 inCalm
8:00 AM61.3 °F52.5 °F73 %29.99 inSSW (200°)1.2 mph
9:00 AM63.1 °F52.9 °F69 %29.99 inSSW (210°)1.2 mph
10:00 AM63.0 °F55.0 °F75 %29.99 inSW (220°)2.3 mph
11:00 AM64.0 °F55.0 °F65 %29.98 inSouth (180°)2.3 mph
11:00 AM64.2 °F55.0 °F72 %29.98 inSouth (180°)2.3 mph
12:00 PM67.5 °F57.6 °F70 %29.98 inSW (230°)2.3 mph
1:00 PM68.4 °F55.9 °F64 %29.97 inSSW (200°)2.3 mph
2:00 PM70.9 °F56.7 °F61 %29.97 inSSW (210°)2.3 mph
3:00 PM71.2 °F57.9 °F63 %29.95 inSSW (210°)2.3 mph
4:00 PM71.6 °F58.1 °F62 %29.94 inSSW (200°)2.3 mph
5:00 PM73.0 °F57.0 °F47 %29.93 inSSW (200°)1.2 mph
5:00 PM72.7 °F56.8 °F57 %29.93 inSSW (200°)1.2 mph
6:00 PM71.2 °F56.8 °F60 %29.92 inSW (220°)1.2 mph
7:00 PM70.2 °F54.1 °F57 %29.91 inSW (220°)1.2 mph
8:00 PM67.5 °F55.8 °F66 %29.91 inWSW (240°)1.2 mph
9:00 PM63.7 °F55.8 °F75 %29.94 inCalm
10:00 PM63.5 °F54.0 °F71 %29.95 inNorth (10°)2.3 mph
11:00 PM62.0 °F54.0 °F67 %29.95 inNorth (10°)1.2 mph
11:00 PM61.7 °F53.8 °F75 %29.95 inNorth (10°)1.2 mph
Hourly data recorded from CWWA, located miles away from Vancouver - City Hall, British Columbia







STORIES FROM OUR PARTNERS